Flag for U.S.A. Weather past 2 weeks in Chattanooga, Tennessee, U.S.A.

63 °F


Feels Like: 63 °F
Forecast: 58 / 62 °F
Wind: 3 mph from Southeast

Location: Lovell Field

Current Time: Nov 30, 2015 at 9:14:43 PM

Latest Report: Nov 30, 2015 at 7:53 PM

Visibility: 3 mi

Pressure: 30.05 "Hg

Humidity: 93%

Dew point: 61 °F

Location of ChattanoogaLocation

Historic Weather in Chattanooga — Graph


Chattanooga temperature yesterday

Maximum temperature yesterday: 61 °F (at 2:53 PM)
Minimum temperature yesterday: 57 °F (at 12:53 AM)
Average temperature yesterday: 59 °F

Past Weeks' High & Low Weather Summary

High70 °F (Nov 26, 2:53 PM)100% (Nov 19, 4:53 AM)30.64 "Hg (Nov 19, 4:53 AM)
Low28 °F (Nov 23, 5:53 AM)23% (Nov 20, 12:53 PM)29.84 "Hg (Nov 18, 6:53 PM)
Average52 °F71%30.23 "Hg
* Reported Nov 15 6:53 PM — Nov 30 6:53 PM, Chattanooga, Weather by CustomWeather, © 2015

Note: Actual official high and low records may vary slightly from our data, if they occured in-between our weather recording intervals... More about our weather records


Chattanooga weather history for previous 24 hours

Time TempWeatherWind HumidityBarometerVisibility
6:53 PM
Mon, Nov 30
64 °FFog.5 mph94%30.04 "Hg2 mi
5:53 PM64 °FFog.3 mph94%30.03 "Hg2 mi
4:53 PM64 °FLight rain. Fog.5 mph94%30.02 "Hg2 mi
3:53 PM64 °FRain. Fog.5 mph94%30.02 "Hg1 mi
2:53 PM64 °FLight rain. Fog.3 mph94%30.02 "Hg2 mi
1:53 PM63 °FLight rain. Fog.5 mph97%30.03 "Hg1 mi
12:53 PM63 °FLight rain. Fog.3 mph97%30.05 "Hg1 mi
11:53 AM62 °FRain. Fog.5 mph96%30.07 "Hg1 mi
10:53 AM62 °FLight rain. Fog.5 mph96%30.08 "Hg2 mi
9:53 AM62 °FLight rain. Fog.5 mph96%30.07 "Hg1 mi
8:53 AM62 °FFog.No wind93%30.06 "Hg3 mi
7:53 AM61 °FDrizzle. Fog.3 mph97%30.04 "Hg2 mi
6:53 AM61 °FDrizzle. Fog.No wind97%30.03 "Hg6 mi
5:53 AM62 °FDrizzle. Fog.5 mph93%30.00 "Hg6 mi
4:53 AM62 °FLight rain. Overcast.5 mph90%30.00 "Hg10 mi
3:53 AM62 °FLight rain. Overcast.6 mph93%30.01 "Hg9 mi
2:53 AM62 °FLight rain. Fog.7 mph93%30.01 "Hg6 mi
1:53 AM61 °FLight rain. Overcast.6 mph97%30.02 "Hg10 mi
12:53 AM61 °FFog.No wind97%30.04 "Hg5 mi
12:00 AM61 °FLight rain. Fog.3 mph97%30.07 "Hg5 mi
10:53 PM
Sun, Nov 29
61 °FLight rain. Fog.No wind97%30.05 "Hg1 mi
9:53 PM61 °FLight rain. Fog.No wind97%30.06 "Hg1 mi
Weather by CustomWeather, © 2015

See weather overviewHow to use our weather pages